Flag for Canada Weather past 2 weeks in Kenora, Ontario, Canada

Now
23 °F

Sunny.


Feels Like: 12 °F
Forecast: N/A
Wind: 10 mph from North

Location: Kenora

Current Time: Mar 26, 2015 at 6:45:55 PM

Latest Report: Mar 26, 2015 at 6:00 PM


Visibility: 15 mi

Pressure: 30.31 "Hg

Humidity: 33%

Dew point: -2 °F

Location of KenoraLocation

Historic Weather in Kenora — Graph

°F

Kenora temperature yesterday

Maximum temperature yesterday: 37 °F (at 12:00 AM)
Minimum temperature yesterday: 21 °F (at 11:00 PM)
Average temperature yesterday: 30 °F

Past Weeks' High & Low Weather Summary

 TemperatureHumidityPressure
High55 °F (Mar 15, 5:00 PM)100% (Mar 13, 12:00 PM)30.47 "Hg (Mar 13, 12:00 PM)
Low0 °F (Mar 21, 6:00 AM)26% (Mar 16, 7:00 PM)29.57 "Hg (Mar 15, 11:00 AM)
Average29 °F62%30.12 "Hg
* Reported Mar 11 6:00 PM — Mar 26 6:00 PM, Kenora, Weather by CustomWeather, © 2015

Note: Actual official high and low records may vary slightly from our data, if they occured in-between our weather recording intervals... More about our weather records

Advertising

Kenora weather history for previous 24 hours

 ConditionsComfort  
Time TempWeatherWind HumidityBarometerVisibility
6:00 PM
Thu, Mar 26
23 °FSunny.10 mph33%30.31 "Hg15 mi
5:00 PM23 °FSunny.14 mph33%30.29 "Hg15 mi
4:00 PM23 °FSunny.12 mph33%30.29 "Hg15 mi
3:00 PM23 °FSunny.10 mph36%30.30 "Hg15 mi
2:00 PM19 °FSunny.5 mph38%30.31 "Hg15 mi
1:00 PM19 °FSunny.8 mph42%30.31 "Hg15 mi
12:00 PM16 °FPassing clouds.7 mph48%30.32 "Hg15 mi
11:00 AM14 °FPassing clouds.9 mph52%30.32 "Hg15 mi
10:00 AM12 °FPassing clouds.12 mph57%30.30 "Hg15 mi
9:00 AM12 °FPassing clouds.9 mph67%30.29 "Hg15 mi
8:00 AM10 °FPassing clouds.7 mph85%30.27 "Hg15 mi
7:00 AM10 °FPassing clouds.7 mph85%30.25 "Hg15 mi
6:00 AM12 °FLight snow. Passing clouds.7 mph85%30.23 "Hg12 mi
5:00 AM16 °FLight snow. Overcast.7 mph79%30.22 "Hg10 mi
4:00 AM16 °FLight snow. Overcast.9 mph79%30.21 "Hg12 mi
3:00 AM18 °FLight snow. Overcast.9 mph79%30.20 "Hg12 mi
2:00 AM18 °FLight snow. Overcast.10 mph73%30.18 "Hg12 mi
1:00 AM18 °FLight snow. Overcast.12 mph79%30.16 "Hg12 mi
12:00 AM19 °FLight snow. Overcast.21 mph73%30.14 "Hg10 mi
11:00 PM
Wed, Mar 25
21 °FLight snow. Overcast.15 mph80%30.11 "Hg5 mi
10:00 PM23 °FLight snow. Overcast.15 mph74%30.08 "Hg6 mi
9:00 PM25 °FLight snow. Overcast.20 mph74%30.03 "Hg6 mi
8:00 PM25 °FLight snow. Overcast.12 mph80%30.00 "Hg6 mi
7:00 PM27 °FLight snow. Overcast.13 mph86%29.95 "Hg8 mi
6:00 PM27 °FLight snow. Mostly cloudy.20 mph86%29.90 "Hg6 mi
Weather by CustomWeather, © 2015

See weather overviewHow to use our weather pages